RH
8 7 7 6 6 6 6 5 4 5 9 11 12 12 12 12 11 10 8 7 8 9 9 8 7 7 6 5 5 4 4 4 3 2 2 2 2 1 8 20 23 14 11 15 19 20 16 20 14 14 33 38 50 68 72 81 80 80 90 97 97 90 81 72 71 77 84 89 93 97 90 90 97 94 89 85 87 87 84 80 76 76 75 77 81 86 92 97
9 8 7 7 6 6 6 6 5 4 8 12 14 14 14 13 12 11 9 8 8 9 9 8 7 6 5 5 4 5 3 4 5 6 6 3 2 2 9 22 26 22 16 13 14 16 14 17 13 16 42 48 44 51 54 64 73 75 80 90 94 81 68 61 69 78 80 85 92 93 89 87 91 94 90 88 93 90 88 85 76 76 78 79 84 88 93 97
9 9 8 7 6 6 6 6 6 4 6 10 14 15 16 15 14 12 10 9 9 9 9 7 7 6 6 5 4 5 3 12 22 22 18 8 1 1 10 22 25 26 24 16 12 14 12 12 12 21 45 51 48 53 51 54 64 69 75 85 82 68 60 54 61 73 76 83 90 92 89 86 89 91 89 90 95 92 90 87 77 77 81 84 88 90 94 95
8 8 7 7 7 6 6 6 6 5 5 8 12 15 16 17 16 14 12 10 10 10 8 7 7 5 6 5 6 6 3 23 35 23 20 13 5 3 10 22 24 25 25 21 19 16 14 18 24 35 51 54 50 51 50 52 56 60 70 74 64 55 56 53 55 69 78 84 88 91 89 90 93 90 89 89 93 95 87 80 76 75 80 85 88 89 92 93
7 7 7 7 7 7 6 6 6 6 5 5 9 13 16 17 17 16 13 12 11 10 8 7 7 6 8 6 8 5 5 30 35 17 18 18 14 10 12 21 23 25 23 20 20 18 21 33 43 50 55 55 51 50 49 49 49 54 59 56 49 45 53 58 60 71 81 84 87 90 89 91 92 89 89 86 87 92 83 75 74 72 75 80 85 88 89 90
7 6 7 7 6 7 6 6 6 6 6 4 5 9 14 17 17 16 15 13 12 10 8 8 8 8 10 9 9 7 10 28 28 18 19 20 20 17 17 21 22 25 23 19 17 19 31 40 46 50 52 51 51 52 49 45 47 54 52 43 41 38 46 59 65 73 79 82 89 89 85 87 91 90 88 82 80 84 78 73 72 72 73 78 83 86 86 86
7 6 6 6 6 7 7 6 6 6 6 5 4 5 11 16 18 17 15 15 13 10 8 8 10 10 11 12 10 8 11 19 21 20 19 20 22 19 19 21 22 24 23 22 16 19 36 40 39 42 45 50 50 49 47 44 44 52 52 42 39 35 39 54 64 74 78 79 86 85 82 87 90 89 89 82 78 79 76 72 71 73 75 79 83 82 82 84
7 6 6 6 6 6 7 7 6 6 5 5 5 4 6 13 18 17 15 16 13 10 9 10 13 13 13 12 11 14 15 19 21 20 19 20 21 18 19 20 21 22 23 24 16 19 34 38 38 38 41 46 46 44 43 44 42 45 47 40 36 33 32 48 64 75 79 78 83 82 82 87 82 81 88 84 78 77 74 71 71 73 76 79 80 79 81 81
12 9 8 7 6 6 6 7 7 6 6 5 5 4 3 8 16 17 16 16 13 10 9 12 15 15 15 11 18 27 21 20 23 20 20 20 20 20 19 18 18 18 21 24 18 19 32 38 39 39 40 39 40 41 38 44 45 39 37 34 33 30 29 48 68 75 78 78 81 80 83 88 79 78 86 82 78 76 72 71 71 73 76 78 78 77 78 80
18 16 14 12 10 9 7 7 7 6 7 6 5 4 3 5 13 17 16 16 13 10 10 14 17 17 16 13 25 35 22 19 24 19 20 18 18 22 21 19 18 16 16 22 20 18 30 40 39 39 38 35 36 36 35 40 40 30 26 25 23 21 30 54 69 73 76 77 77 79 87 88 78 77 84 81 78 75 71 72 71 72 77 76 77 77 76 79
15 15 15 15 14 13 11 9 8 7 7 7 6 5 3 3 10 16 17 16 12 11 12 16 19 19 19 21 31 34 20 17 22 18 18 17 16 23 24 18 16 17 14 18 19 15 27 38 37 36 35 34 32 31 31 31 29 22 19 19 14 21 44 63 69 71 72 75 75 77 85 85 79 80 80 77 77 76 73 73 71 71 75 76 76 76 75 77
11 11 11 12 13 13 13 12 10 9 8 7 7 6 4 3 9 16 16 16 13 13 14 16 21 21 23 26 25 25 21 17 21 21 18 18 17 22 28 23 19 18 13 15 17 14 23 33 34 34 33 31 29 29 28 25 24 19 17 17 15 37 64 64 67 72 66 72 74 71 82 87 86 84 73 71 78 78 77 75 72 71 72 75 75 74 74 75
11 11 11 11 11 11 11 11 11 11 10 8 8 7 5 3 8 15 15 16 15 14 16 18 20 23 27 27 17 20 24 19 21 22 17 17 17 19 26 28 27 26 18 15 16 13 17 28 33 34 31 28 26 27 27 23 22 19 19 15 15 49 76 63 63 70 63 71 71 62 80 89 83 79 69 70 78 77 80 79 74 71 69 72 73 73 74 74
13 13 14 14 12 11 9 9 9 9 10 9 8 7 4 4 11 16 15 17 16 16 20 20 22 28 32 25 17 23 25 20 19 17 14 16 16 18 22 24 27 31 26 18 16 14 15 23 30 31 28 26 25 26 26 23 21 18 19 19 17 35 59 61 61 66 65 72 67 59 78 83 73 74 70 70 76 74 77 78 75 71 68 69 70 71 71 73
16 18 20 20 18 14 10 10 10 9 9 9 8 5 5 10 15 14 16 18 16 17 21 23 27 37 40 26 17 23 21 18 17 13 14 15 15 18 20 22 26 32 32 24 20 16 14 18 24 26 26 28 27 27 29 27 25 23 21 27 26 15 31 59 63 62 66 71 67 60 70 73 65 69 69 69 74 72 73 74 74 71 67 67 68 69 70 71
22 25 25 25 24 19 14 11 11 11 9 8 6 5 11 18 17 15 20 19 16 18 20 23 27 38 49 35 20 22 18 14 13 11 14 14 14 16 19 25 30 33 32 25 21 19 16 16 20 25 27 32 32 28 31 34 35 34 25 28 28 12 24 57 64 59 60 67 71 63 68 73 65 65 68 68 72 71 70 70 71 70 68 66 65 67 68 68
25 27 27 27 26 23 19 13 12 11 7 9 10 12 19 22 19 19 21 18 15 16 18 23 27 34 40 30 22 24 20 14 13 11 12 13 13 13 17 26 31 29 26 22 22 22 22 22 26 33 33 33 32 28 35 42 41 38 30 26 25 17 18 35 51 60 59 65 73 68 71 74 66 65 66 66 69 69 69 67 67 69 67 65 65 66 66 67
26 26 27 27 26 25 21 14 12 9 8 16 21 20 22 23 24 25 23 22 21 25 34 38 39 39 31 21 22 22 18 16 13 10 11 11 11 12 14 22 30 29 25 27 27 26 28 29 31 39 39 32 28 30 39 45 39 34 30 26 25 21 16 18 31 50 60 65 69 71 75 70 62 64 65 64 67 68 68 65 64 66 66 64 64 66 66 66
26 27 27 26 26 26 22 14 9 8 14 23 24 22 21 22 27 27 25 26 27 37 52 49 41 39 31 24 23 16 12 14 12 9 10 10 10 12 11 15 26 30 31 36 35 30 32 35 35 41 44 36 30 30 34 35 31 28 27 26 25 21 19 16 14 31 57 67 67 70 72 67 63 65 64 63 65 65 66 65 64 63 64 64 63 65 66 66
28 28 28 27 26 26 22 13 6 9 21 25 23 23 23 24 28 29 26 25 24 29 35 33 29 29 27 23 19 13 10 10 10 9 10 11 10 11 10 12 23 31 36 41 40 32 33 42 46 46 46 40 33 28 27 28 25 24 25 26 26 24 24 20 12 24 52 66 65 63 64 61 62 65 62 61 63 63 64 65 64 63 63 63 63 64 65 66
32 31 30 29 26 26 21 12 10 15 24 26 23 25 26 28 32 31 28 25 23 21 20 20 21 22 21 19 14 13 13 11 9 9 9 10 11 11 10 15 26 35 37 36 35 31 35 47 50 44 41 37 32 29 26 26 24 25 26 26 28 27 25 21 14 18 40 60 58 54 60 58 58 63 61 61 62 62 63 65 64 64 63 63 63 63 64 65
36 35 34 31 27 26 20 15 19 23 26 28 26 27 28 29 31 30 29 28 23 19 17 17 18 18 18 16 13 13 15 13 8 8 9 10 11 11 12 20 32 38 34 32 34 37 42 48 45 38 36 33 31 29 26 26 26 26 26 27 29 27 22 20 17 11 26 48 45 40 52 55 56 63 61 60 62 60 60 63 63 63 64 64 63 63 63 64
38 38 36 32 28 26 20 18 25 26 26 29 28 28 29 28 28 28 28 29 25 18 16 15 14 15 14 13 12 12 13 12 8 7 8 9 11 11 15 22 31 35 34 33 37 44 50 47 37 33 32 31 31 30 28 28 27 27 27 28 29 25 21 22 20 11 15 32 30 31 52 63 64 67 65 60 58 58 58 59 62 62 63 64 63 63 63 64
40 38 36 34 29 27 21 17 24 26 24 29 29 28 28 27 27 28 27 29 29 22 16 14 12 12 14 13 10 9 10 9 7 8 8 9 11 12 16 21 26 33 35 34 35 40 45 37 29 29 30 30 32 30 30 30 31 30 26 27 27 23 21 21 19 13 15 32 40 46 68 81 77 73 71 64 57 57 58 58 60 61 62 63 63 64 64 63
41 39 37 35 30 28 20 13 20 23 22 28 29 27 27 25 26 27 30 35 37 29 19 15 15 14 12 11 9 8 8 7 7 8 9 9 10 12 15 17 22 30 33 34 35 36 35 28 23 28 29 28 30 31 30 31 33 32 26 25 24 21 21 18 16 13 20 45 56 54 68 83 82 78 74 67 63 61 59 58 59 59 61 62 62 64 64 64
42 40 36 34 31 27 18 14 18 19 23 28 27 26 24 24 26 24 33 48 44 30 21 16 15 14 10 9 8 7 8 8 7 9 10 10 10 11 13 14 19 26 28 30 33 33 30 25 22 25 28 27 28 29 27 27 32 33 29 23 20 20 19 17 17 15 23 46 48 40 60 82 80 78 74 68 67 65 62 61 59 58 59 61 61 63 64 64
42 39 35 34 31 27 20 19 20 19 24 26 25 25 20 24 28 21 38 62 48 24 19 16 12 11 10 9 7 9 12 10 8 9 10 10 9 9 12 16 16 17 18 22 32 31 23 24 24 23 25 27 28 28 24 24 28 30 25 19 19 20 18 16 17 16 21 37 38 32 55 83 82 74 69 68 70 69 66 64 60 59 58 59 60 60 63 64
40 37 34 32 31 29 23 21 23 23 25 24 23 21 20 28 28 23 43 59 39 18 15 13 10 10 9 8 7 8 11 10 10 11 9 9 10 8 12 17 16 15 13 20 32 27 17 21 25 23 24 26 27 24 21 21 24 25 20 17 18 15 17 17 15 21 26 32 38 36 46 71 82 76 65 64 73 73 69 66 61 60 58 58 59 58 60 63
36 33 31 30 30 27 22 23 27 28 27 26 23 22 24 27 25 34 50 46 25 15 14 11 11 10 8 9 8 7 8 9 10 11 9 9 10 9 12 14 15 14 11 14 22 18 12 14 17 20 23 24 22 20 19 20 22 20 16 18 18 16 23 25 21 27 28 25 32 33 34 50 65 75 73 69 74 73 66 63 59 58 58 57 58 58 58 61
33 31 30 30 29 26 24 27 28 29 28 26 25 26 27 28 38 55 55 35 20 15 12 12 11 10 9 11 10 8 9 9 8 10 9 11 12 10 11 10 10 13 15 16 14 14 13 9 11 16 17 17 17 17 17 19 18 16 16 16 16 22 29 37 47 42 24 26 39 34 28 29 33 54 73 70 64 64 62 61 59 56 57 57 57 57 57 58
30 30 31 31 31 30 30 28 27 28 28 27 28 27 26 35 57 69 50 26 21 18 14 14 14 11 11 12 13 11 11 11 9 9 11 14 17 15 15 16 15 18 28 25 13 14 16 11 12 12 11 13 14 16 16 17 18 17 22 18 16 30 32 33 49 41 21 33 47 37 23 17 18 35 57 60 53 53 55 57 58 56 56 57 56 57 57 57
32 32 33 33 33 34 34 32 31 30 30 30 29 27 37 51 58 57 43 26 24 22 16 16 15 12 13 13 13 13 12 12 11 11 14 19 22 20 20 22 21 23 31 28 18 18 18 15 14 11 11 12 13 18 17 17 18 17 27 29 24 34 34 28 38 36 31 35 34 31 23 18 27 33 41 51 50 47 49 49 51 53 54 55 56 56 56 57
35 35 36 36 35 35 34 33 32 31 30 31 29 32 50 64 52 41 37 29 24 21 17 17 16 13 15 14 13 15 14 14 15 17 20 21 24 24 20 19 21 25 31 28 23 24 19 16 16 13 14 12 12 19 19 18 20 16 23 30 29 35 31 30 39 37 34 32 25 27 21 17 29 31 33 45 45 42 43 43 44 47 51 53 54 56 56 57
35 36 37 35 34 32 31 31 30 30 30 29 31 36 46 57 49 36 32 27 23 20 17 17 17 16 16 15 15 16 19 20 20 21 24 24 26 27 23 20 18 22 29 29 27 28 25 21 18 15 14 13 13 15 15 19 20 18 21 23 29 40 36 34 43 39 31 30 28 24 18 21 31 39 48 48 42 43 42 41 42 42 46 51 52 55 56 57
35 35 34 30 30 29 29 30 29 29 30 26 30 36 38 45 45 35 29 26 22 19 17 17 18 20 20 19 17 14 17 23 21 22 25 25 27 29 26 23 20 21 27 30 28 27 28 25 19 16 13 13 16 14 12 17 18 19 22 20 21 32 39 39 43 47 37 30 31 24 21 30 32 41 58 55 49 53 50 47 47 43 44 49 53 55 56 57
34 32 30 28 28 29 28 30 29 28 30 28 34 43 41 36 35 30 26 23 21 19 20 21 21 24 25 24 22 17 16 19 20 25 28 26 27 28 25 23 22 24 27 28 26 24 28 26 18 17 15 13 17 16 13 15 19 23 21 20 18 18 31 35 33 46 45 31 33 32 31 42 41 40 54 58 58 60 56 54 53 50 46 45 52 57 56 57
30 28 28 28 28 28 27 28 28 28 27 28 37 47 43 32 28 29 26 21 19 18 22 26 26 26 27 27 26 22 20 20 21 28 31 30 29 27 25 24 21 23 27 27 24 22 26 26 21 20 20 15 14 15 15 12 16 23 19 18 19 15 26 35 32 43 47 34 33 38 49 68 72 65 62 63 66 63 59 57 56 57 55 47 48 54 57 58
27 26 27 28 29 28 27 26 27 26 26 35 45 45 36 31 28 27 25 22 20 19 23 28 27 25 27 29 28 24 24 27 27 31 34 33 31 27 26 27 22 22 25 25 27 28 25 23 23 22 21 19 16 15 18 15 13 18 17 18 24 25 29 35 34 34 36 38 33 32 56 77 75 69 68 69 72 67 62 60 59 61 62 58 52 49 54 59
28 27 25 26 27 26 27 28 26 23 26 40 53 46 31 29 28 25 25 23 22 23 26 28 26 25 27 28 28 26 27 29 29 34 38 36 32 28 27 28 26 24 25 24 31 37 31 24 24 24 21 21 21 21 23 23 19 18 19 20 25 31 29 27 33 34 34 43 38 32 55 70 56 51 60 70 72 66 63 64 62 61 62 67 63 52 51 57
27 29 26 24 23 24 26 26 23 27 34 39 43 39 29 27 27 24 24 23 23 25 26 26 27 28 27 26 28 27 29 32 31 34 38 37 34 31 27 28 30 29 29 27 28 37 42 36 29 30 28 23 25 27 26 27 25 23 26 26 24 30 30 23 26 30 33 43 46 49 61 63 45 34 45 65 69 63 62 63 61 61 62 67 70 62 53 53
27 31 29 22 22 23 24 27 30 36 43 40 35 33 31 28 26 25 24 23 24 24 23 24 27 29 28 27 28 28 31 35 36 36 38 37 38 37 31 29 32 32 36 39 35 37 46 46 39 39 35 27 28 28 24 26 26 24 27 28 25 27 32 35 35 35 38 40 43 54 60 56 43 27 35 61 66 59 61 59 58 61 62 65 70 70 60 53
29 35 31 22 23 23 21 32 40 37 38 38 32 31 31 27 25 27 27 26 26 26 26 27 29 32 33 31 30 32 36 38 39 40 40 38 38 39 33 30 31 33 39 47 42 36 45 49 43 44 41 31 28 27 26 26 24 25 25 23 24 24 27 41 46 42 44 43 46 57 57 54 47 28 37 63 65 60 62 59 58 60 61 64 68 71 70 62
32 34 29 22 22 20 22 38 46 38 34 32 27 26 28 27 28 29 30 31 30 29 31 32 32 36 37 36 36 39 41 43 43 41 41 42 38 35 34 32 30 33 40 48 43 34 43 50 41 44 49 39 31 31 31 27 25 29 29 23 24 23 21 31 38 43 52 50 52 59 53 51 47 31 43 68 70 68 67 60 60 61 60 64 66 70 75 73
32 32 29 26 23 19 27 42 46 43 38 31 28 30 28 26 30 32 34 36 34 33 36 37 35 36 36 36 41 43 44 48 49 44 44 47 40 32 34 34 33 37 39 43 43 33 38 54 53 52 51 38 38 48 45 36 33 34 31 26 24 23 23 26 31 50 65 53 45 53 57 55 41 32 54 75 76 79 75 63 62 63 62 64 65 68 73 75
34 36 31 28 24 23 32 38 38 42 41 35 34 34 32 31 31 34 37 37 35 35 38 39 35 35 36 38 42 44 44 49 52 50 50 50 42 32 32 35 34 36 36 36 36 32 40 58 62 59 54 44 48 60 56 46 44 39 32 28 26 24 26 28 34 53 65 53 43 51 60 52 33 40 72 82 79 87 84 70 66 64 64 65 64 67 71 72
41 48 45 38 30 27 33 33 32 41 46 47 44 36 36 39 33 32 35 37 36 34 37 39 35 35 38 42 48 50 48 49 51 55 56 50 44 35 31 35 35 33 35 32 28 41 59 64 61 65 67 59 56 58 54 50 48 42 37 32 29 28 28 30 37 47 51 44 45 57 55 39 35 60 86 85 82 89 88 79 73 67 66 66 65 66 69 70
48 59 60 54 42 37 39 34 35 43 45 47 47 39 38 41 38 36 36 35 36 35 37 39 38 42 44 45 55 58 56 55 53 55 56 49 47 41 29 32 35 31 35 30 25 50 74 63 53 61 62 56 56 54 48 47 44 40 39 34 31 32 31 31 33 38 38 37 50 67 57 40 51 76 85 84 85 86 87 87 81 72 69 69 68 67 67 68
49 56 57 55 51 51 50 41 39 45 45 47 50 44 41 43 44 42 37 36 35 35 43 45 43 51 53 49 57 61 63 68 62 57 56 50 52 51 37 37 38 29 33 35 32 52 75 63 48 51 51 48 47 46 45 45 42 39 38 36 34 33 32 32 31 31 34 35 43 50 45 50 71 78 74 80 82 79 83 89 85 78 75 73 72 71 70 71
49 53 51 47 46 47 46 39 36 41 48 58 62 51 44 46 46 41 39 44 43 39 45 48 45 55 61 62 68 65 62 67 64 56 53 49 52 53 46 46 41 27 32 45 44 48 63 66 54 48 51 52 49 46 45 45 44 43 41 39 38 36 34 33 31 29 31 34 37 34 39 62 79 71 65 72 76 75 80 85 87 85 80 77 76 77 75 74
53 54 47 40 43 42 38 37 40 45 51 61 63 52 47 49 46 41 39 44 46 43 42 44 45 53 60 65 69 63 57 60 59 50 46 48 53 51 47 47 42 35 42 53 52 44 46 58 60 54 55 58 55 52 47 46 51 51 47 43 38 37 37 32 29 31 30 35 42 41 50 74 78 65 64 67 70 77 80 82 88 89 86 84 81 81 80 76
53 52 47 50 57 52 41 40 49 56 58 60 59 52 50 50 43 41 39 34 35 40 39 39 44 52 60 61 56 49 47 49 47 40 37 42 44 41 42 43 40 43 50 53 55 52 49 58 66 69 69 64 58 56 53 50 48 44 44 47 44 43 46 43 47 54 50 51 56 53 63 85 82 68 67 66 68 77 80 81 86 87 89 90 87 85 82 77
53 50 45 51 60 54 48 54 62 63 57 53 52 49 49 48 41 40 43 36 30 34 36 35 39 50 58 55 44 36 33 34 35 35 35 38 38 35 38 42 42 46 50 52 57 63 66 69 70 74 80 75 64 61 59 51 44 43 47 56 62 64 64 65 75 82 77 74 74 68 72 85 80 71 73 71 70 75 76 79 82 82 85 88 89 90 85 76
Wind_Speed
18 17 17 17 16 16 16 16 16 16 14 14 14 14 15 15 15 16 15 13 12 12 11 11 11 11 10 11 11 11 11 12 13 15 15 9 10 13 15 17 18 20 21 21 21 20 19 17 14 14 13 14 14 14 14 14 10 5 2 2 2 3 3 3 2 4 6 5 7 11 12 8 8 10 9 8 9 9 7 9 11 6 15 21 21 32 33 31
19 18 17 17 17 16 15 15 16 16 15 14 14 14 14 15 15 16 16 15 13 12 11 11 11 11 10 10 10 11 12 13 13 13 10 6 10 14 17 20 19 20 21 22 22 22 21 18 17 17 16 13 11 12 11 11 12 8 2 1 4 4 4 4 5 9 8 8 10 12 12 10 11 12 12 9 7 8 6 8 11 16 21 20 27 35 32 33
20 19 18 17 17 16 15 15 15 16 16 15 14 14 14 15 15 16 17 16 14 12 11 11 11 11 10 10 10 10 11 11 8 4 2 2 8 13 18 22 21 20 19 20 20 20 18 16 18 19 17 12 10 11 10 9 9 10 6 2 5 6 4 5 8 12 12 15 12 10 12 11 12 15 13 9 8 7 6 9 14 21 26 29 34 34 34 35
20 19 18 18 17 16 16 15 15 15 16 16 15 14 14 15 16 16 17 16 15 13 11 10 10 10 10 9 8 9 9 6 0 5 7 5 6 10 17 22 22 20 18 16 18 18 14 14 17 19 15 9 9 10 9 10 9 7 8 5 4 5 3 6 8 13 16 21 15 11 13 10 12 14 12 12 10 4 8 15 18 24 32 36 38 36 36 35
20 19 18 18 17 16 16 16 15 15 15 16 16 15 14 15 15 17 17 16 15 13 11 10 9 9 10 8 8 7 5 3 3 8 9 9 7 8 14 19 21 20 18 16 17 18 15 17 17 17 12 6 6 7 9 16 13 4 7 11 9 5 2 3 8 14 19 20 15 12 11 13 14 12 14 15 9 5 13 20 20 26 35 39 40 38 36 35
22 20 19 18 17 17 16 16 16 15 15 16 16 15 15 15 15 16 18 17 15 13 10 10 9 9 9 7 7 4 1 1 5 7 7 8 7 7 11 17 21 21 20 17 18 19 19 18 16 15 10 5 5 6 8 14 15 6 6 11 12 11 5 5 11 15 20 19 13 11 12 17 14 9 15 16 8 8 18 22 21 27 35 38 40 38 36 36
21 21 20 19 18 17 16 16 16 16 15 15 16 15 15 15 14 16 17 17 15 11 10 10 9 8 8 8 5 3 4 3 7 5 5 6 5 7 12 16 21 23 23 21 20 21 22 19 17 15 9 4 5 8 10 11 12 9 6 9 12 13 10 12 16 16 21 20 15 15 16 17 14 10 14 14 9 12 20 23 23 29 35 36 38 37 35 36
20 20 20 20 19 18 17 17 16 16 16 16 16 15 15 15 14 15 17 17 14 11 9 9 9 8 8 6 4 4 5 4 6 4 5 5 3 6 11 15 20 23 24 23 23 23 23 20 19 15 6 5 5 5 10 9 8 9 8 10 12 14 13 16 20 18 19 17 17 18 16 13 15 17 14 13 12 15 24 24 24 32 35 35 38 36 33 34
20 19 19 19 19 19 18 18 17 17 16 16 16 16 15 14 14 15 16 16 13 10 9 8 8 8 7 4 3 2 4 7 6 4 4 2 2 4 8 11 15 21 24 24 23 23 24 22 22 17 6 6 8 6 7 5 5 8 10 13 12 14 15 18 21 20 18 16 18 17 11 8 14 16 11 12 14 16 24 26 29 35 35 35 37 35 33 35
21 20 20 19 19 19 18 18 18 18 17 17 17 16 15 14 14 15 16 15 12 10 9 7 7 7 4 3 2 2 6 8 6 3 2 1 0 2 6 9 11 15 21 24 25 26 27 25 24 19 7 5 6 8 9 6 6 8 9 13 14 17 15 21 22 20 17 14 18 14 7 8 14 11 5 12 15 16 24 29 33 35 35 36 36 35 33 35
23 22 22 21 20 20 20 19 18 18 18 18 17 16 15 14 14 15 15 14 11 9 8 6 6 5 2 3 5 5 7 6 4 3 2 1 1 1 4 7 10 12 17 23 27 28 28 24 19 14 6 5 5 8 10 7 7 11 10 10 11 10 8 20 19 19 16 10 16 14 8 7 9 4 5 17 19 21 31 34 34 34 35 36 35 34 33 35
22 22 23 22 22 22 22 21 20 19 18 18 18 17 15 14 13 14 14 12 11 8 7 5 4 4 3 6 10 8 7 5 4 5 5 2 1 0 1 2 5 8 13 21 27 28 27 23 17 11 7 4 4 5 7 9 12 13 8 6 6 2 8 14 14 19 14 8 19 18 8 2 7 5 8 23 25 26 31 32 33 33 34 35 35 33 33 36
21 21 22 22 23 23 23 23 22 21 19 18 18 17 15 14 13 14 13 12 10 7 6 4 4 4 5 7 8 9 7 7 7 7 7 4 4 3 1 1 1 2 8 17 23 27 27 22 18 15 10 4 4 5 10 15 13 9 4 2 1 4 4 10 12 17 10 10 25 19 3 5 8 7 12 26 29 26 26 30 33 31 32 35 35 34 33 37
20 21 21 21 22 22 23 23 22 22 20 18 17 16 15 13 13 13 12 10 8 6 4 3 3 4 6 5 7 9 7 9 10 9 6 5 6 6 5 4 4 3 5 11 17 22 27 24 18 14 12 9 10 10 11 10 6 3 3 2 1 3 4 7 10 13 6 10 26 13 1 6 9 10 16 28 31 25 25 31 34 30 32 34 35 35 34 37
21 21 21 21 21 22 22 22 22 21 19 17 15 14 13 12 11 11 10 8 6 5 3 3 3 3 6 6 7 8 7 9 10 8 7 6 6 6 6 4 4 4 5 9 12 15 21 23 16 11 12 13 12 8 5 4 3 2 1 3 2 2 3 4 8 13 8 10 21 9 1 5 6 10 19 28 30 24 26 33 34 32 32 34 34 35 35 36
22 22 22 22 22 22 22 22 22 20 18 15 14 12 10 9 9 9 8 6 5 5 4 4 4 3 5 4 6 7 6 9 9 8 9 8 7 5 5 5 5 5 6 9 11 9 14 16 13 12 13 10 6 3 2 4 4 3 1 2 3 2 1 2 5 13 10 10 15 10 2 2 2 10 19 27 28 24 26 31 34 34 33 34 33 34 36 36
23 23 23 23 23 23 23 22 21 18 15 13 12 8 5 7 7 7 5 4 5 6 6 6 5 5 4 4 5 6 5 7 8 8 9 9 8 6 6 8 7 7 8 10 11 10 11 12 9 9 9 5 2 3 1 2 3 3 2 0 3 1 3 3 3 9 8 7 11 11 6 3 2 10 20 27 29 24 25 29 33 35 35 35 33 33 36 37
23 24 23 23 23 23 23 21 19 16 12 12 10 5 4 5 2 1 0 1 2 3 4 6 5 3 4 4 2 3 3 5 8 8 9 9 9 9 7 7 8 9 10 8 8 10 11 8 5 2 3 3 3 4 3 4 4 2 1 1 2 2 2 3 2 6 8 6 9 11 10 8 3 7 18 26 29 25 25 28 31 34 35 36 34 33 36 38
24 24 24 23 23 23 22 20 17 13 10 11 9 4 5 6 5 6 5 6 3 3 2 5 7 2 2 4 2 1 2 4 8 7 9 10 9 10 8 7 8 11 9 4 5 9 9 4 3 3 3 4 4 5 6 5 5 5 4 2 2 3 2 4 3 6 12 9 8 11 12 11 6 8 14 22 27 25 24 27 29 32 34 35 35 34 35 38
25 25 24 23 22 22 20 17 13 9 10 13 9 5 6 8 4 3 10 15 9 6 7 8 9 9 7 5 3 3 3 4 9 7 8 10 10 11 10 8 9 9 7 4 4 6 7 4 4 6 5 5 5 5 6 5 4 3 2 1 3 3 4 4 3 4 12 9 8 12 12 12 10 10 14 22 25 22 22 25 26 30 32 34 34 34 36 39
25 25 24 23 20 20 18 13 9 6 11 15 12 10 9 10 5 5 14 15 11 10 11 10 10 14 12 7 3 3 6 3 8 7 7 9 12 10 9 8 6 4 4 5 4 3 5 5 6 6 6 6 5 5 5 4 4 3 2 3 4 3 5 6 3 4 9 7 7 11 11 12 12 11 15 22 21 19 25 27 28 31 31 33 35 34 35 37
25 25 25 22 18 18 15 9 6 5 10 13 14 14 13 12 7 7 10 11 15 16 11 9 10 13 14 10 4 4 8 7 6 7 6 8 12 10 7 6 5 3 3 4 4 2 4 5 6 7 5 4 4 3 4 4 5 4 3 2 3 3 3 6 5 5 7 6 6 9 11 10 8 9 13 19 20 22 29 32 31 33 32 33 35 35 35 34
25 25 24 21 17 15 12 7 4 5 8 9 12 14 12 11 9 7 7 8 14 15 10 9 10 13 14 10 6 6 8 8 5 4 6 9 12 11 8 6 4 4 3 3 4 4 4 5 7 8 4 3 5 5 3 3 4 4 4 3 3 2 1 3 5 2 3 5 6 5 6 3 3 6 8 16 21 20 25 29 29 32 34 36 38 38 36 35
25 24 23 21 17 13 10 6 4 4 5 6 8 10 9 8 7 9 9 5 6 8 5 6 7 10 11 8 4 6 8 7 5 3 5 10 12 10 8 6 5 4 4 5 6 4 4 7 7 6 4 4 5 6 3 3 4 4 6 6 4 3 4 6 4 4 2 5 4 2 2 2 4 9 7 10 16 15 19 24 25 29 33 35 35 35 36 37
24 23 23 21 16 11 8 5 5 4 4 3 4 6 8 6 6 10 8 2 3 5 2 4 6 6 6 4 4 6 5 5 5 2 5 11 13 8 5 6 5 3 5 6 6 4 6 10 7 4 5 5 4 6 4 5 4 5 7 8 7 6 7 8 4 3 4 5 3 3 3 3 3 8 7 7 10 11 15 19 21 27 31 31 32 33 36 37
23 23 22 19 15 11 6 2 4 4 3 3 3 6 9 7 7 8 5 3 2 4 1 3 5 5 4 5 7 5 1 1 1 4 8 11 11 8 5 4 3 3 6 5 4 3 4 7 6 6 7 6 5 7 5 6 4 5 6 7 8 8 8 8 5 1 2 4 4 1 4 2 3 5 7 7 9 10 11 13 17 24 28 31 33 35 37 37
21 22 20 16 13 11 6 0 2 2 1 4 6 8 10 7 7 8 3 3 2 3 0 2 4 3 4 7 10 6 1 1 3 7 11 10 7 7 5 3 1 2 3 4 2 3 3 4 6 6 6 6 5 7 7 7 5 6 4 6 7 8 7 8 6 4 4 3 2 3 4 2 2 5 8 8 9 9 9 11 14 22 28 31 33 35 38 39
19 19 16 12 10 9 5 1 2 3 3 7 9 10 9 6 5 4 2 3 2 2 0 2 1 2 5 9 10 5 2 2 4 7 11 9 4 5 4 4 5 4 1 5 3 5 2 4 7 7 5 5 6 9 9 8 6 10 5 6 6 7 7 6 5 4 2 2 1 4 2 3 4 3 6 8 9 10 13 14 14 21 28 31 33 36 38 40
17 16 12 9 7 6 4 1 4 6 5 7 8 8 7 6 4 1 3 2 2 2 1 1 1 2 4 6 5 3 2 1 2 6 8 5 2 2 2 3 5 4 1 4 4 4 2 4 6 7 6 5 8 12 9 9 9 10 4 4 3 3 2 2 4 4 1 2 5 7 2 3 5 3 5 7 8 11 15 15 14 21 30 32 32 34 36 38
13 11 9 7 7 6 3 2 4 6 7 8 7 7 6 5 1 3 3 2 1 3 3 2 1 2 2 3 1 0 1 0 1 6 6 9 10 8 3 2 3 3 1 1 2 4 5 7 4 4 4 8 10 11 11 14 14 6 1 3 2 2 3 2 2 3 3 1 6 6 3 4 3 4 4 7 11 15 14 12 12 19 27 32 32 33 35 38
9 8 8 8 8 7 5 3 3 5 8 9 9 8 5 2 2 5 2 2 2 4 5 3 2 0 2 4 1 0 1 1 1 4 5 9 13 15 9 3 4 4 2 4 2 4 6 4 2 1 3 2 5 7 7 13 13 4 2 2 2 1 2 3 3 3 4 3 6 6 3 4 1 5 6 9 13 14 13 13 15 19 25 31 33 35 37 38
7 7 8 8 8 8 7 5 4 4 6 9 10 6 1 2 4 3 2 4 3 3 5 4 2 1 1 3 2 1 2 2 4 6 5 3 6 9 7 3 2 2 1 2 1 3 3 1 3 4 7 12 5 3 3 2 5 4 2 3 3 1 1 1 2 1 3 3 5 6 2 2 3 5 6 11 13 11 12 16 17 18 23 29 33 35 37 37
7 8 8 9 8 7 6 5 5 5 8 11 9 3 3 5 4 3 3 3 2 3 5 4 4 1 2 3 3 2 5 5 5 5 4 4 5 4 5 7 5 2 3 1 1 3 1 2 7 5 5 12 6 2 1 1 4 6 5 4 4 3 2 3 3 1 2 3 3 5 2 1 3 4 5 6 11 14 19 24 25 24 25 30 34 36 36 37
9 11 11 11 9 8 7 7 9 10 13 13 4 3 7 6 1 3 3 2 3 4 4 4 4 4 4 4 2 3 5 5 5 6 5 4 5 4 5 10 11 4 2 2 2 2 2 2 5 4 3 8 6 1 3 3 3 4 5 5 4 5 5 4 4 3 3 2 2 2 2 2 2 2 8 9 9 10 9 15 20 25 28 30 32 33 34 36
10 12 13 13 12 12 11 11 13 15 16 11 6 6 7 3 3 3 3 4 3 3 5 4 6 7 5 5 4 4 4 3 4 8 8 6 5 5 5 7 10 6 2 3 1 1 3 2 4 2 3 4 6 6 3 3 2 3 2 6 3 3 4 3 3 5 4 2 1 1 2 2 4 1 10 14 15 18 20 21 17 15 21 25 28 31 35 37
10 12 15 16 14 14 15 16 16 17 16 9 8 6 4 2 3 3 4 5 3 5 6 5 8 7 5 5 6 7 5 3 2 4 5 5 5 7 6 4 8 8 4 2 1 2 2 2 5 5 4 6 9 8 3 6 2 2 3 2 2 2 3 4 1 1 4 4 1 1 0 4 2 2 12 16 15 17 19 22 22 22 17 16 27 30 35 40
10 13 16 17 16 14 16 18 18 17 15 10 9 5 2 1 4 4 5 6 5 5 4 4 6 5 3 3 5 8 6 3 4 4 3 3 4 8 7 5 7 9 6 2 2 1 1 2 4 6 3 9 15 8 2 11 7 2 2 3 4 1 3 4 1 2 5 2 2 1 4 4 4 2 8 14 17 18 18 18 19 24 24 12 24 31 34 39
10 12 17 19 15 13 15 18 17 14 13 10 8 5 1 3 8 8 8 7 4 6 6 5 3 3 2 2 4 8 7 4 4 4 3 3 3 6 7 5 7 11 11 7 2 0 2 1 4 5 2 8 15 8 2 12 13 3 3 3 3 3 2 1 2 2 2 2 2 2 4 3 3 3 7 12 14 15 16 16 17 21 25 22 17 27 35 36
11 11 16 19 13 10 13 16 15 14 12 7 4 3 1 2 9 15 15 9 5 6 5 3 3 3 3 2 2 7 8 6 4 3 3 3 2 5 9 6 6 11 13 10 4 1 2 2 3 5 5 5 7 7 3 8 10 6 4 5 4 2 2 1 2 3 2 3 3 1 3 2 2 5 7 9 10 12 14 14 14 18 25 29 26 17 31 36
13 9 14 19 12 8 9 11 15 15 9 4 3 2 3 2 8 19 23 15 7 6 4 2 3 3 4 5 3 4 7 7 5 4 3 4 1 3 10 8 6 9 10 8 6 2 2 3 1 5 7 4 2 4 4 4 5 7 7 7 6 4 2 2 1 1 3 3 3 3 2 2 3 5 7 8 9 9 12 11 12 20 27 31 36 25 18 36
16 8 14 20 12 8 11 13 13 9 4 3 3 2 4 4 7 16 23 20 13 10 8 4 5 4 3 5 5 4 4 5 6 5 3 5 4 2 9 11 8 7 6 5 6 4 2 2 2 3 5 4 1 4 5 5 6 7 6 5 5 5 3 3 2 2 2 3 2 4 4 3 4 4 5 6 7 7 11 13 12 21 31 33 39 39 15 23
19 7 14 20 12 13 19 14 7 5 4 4 5 5 7 6 7 12 18 18 13 11 11 7 5 5 4 4 4 4 4 4 5 4 3 5 5 2 10 17 13 6 4 3 3 3 2 2 2 2 2 1 2 3 8 7 6 8 8 6 4 5 5 2 1 3 4 3 1 3 4 3 4 3 5 5 6 8 13 16 16 21 30 35 39 43 34 9
18 12 18 19 12 17 21 9 5 6 5 4 7 10 10 7 7 10 13 14 9 7 8 7 5 6 6 5 4 4 4 4 5 4 3 3 5 7 13 18 15 8 4 2 3 4 3 3 3 3 3 4 3 1 6 10 7 6 7 7 6 5 4 1 3 0 2 4 4 2 3 2 4 4 7 8 8 10 15 18 18 22 28 35 40 42 42 34
14 16 23 22 12 12 14 5 2 5 4 5 7 8 10 10 10 11 9 10 9 5 3 5 6 6 5 5 5 5 3 4 4 4 3 2 4 11 18 20 16 9 6 5 5 4 3 2 3 3 3 4 4 4 5 8 8 4 4 6 6 8 8 4 0 2 3 3 3 1 3 3 5 5 7 10 10 10 15 18 19 22 26 32 38 40 41 41
8 10 18 24 22 19 13 4 3 5 4 6 8 6 6 8 12 14 10 9 11 8 4 3 3 4 5 6 8 8 7 6 3 3 4 3 4 10 16 19 16 12 11 13 9 4 3 2 3 4 3 2 1 1 3 4 5 3 4 6 6 8 10 5 2 3 2 2 3 2 2 5 7 7 9 12 11 11 15 20 21 23 25 28 34 38 39 41
6 4 7 15 23 25 19 12 9 5 2 4 6 6 5 3 8 15 13 9 11 12 8 5 4 4 6 7 7 7 9 7 4 2 3 3 3 6 11 15 16 15 14 18 15 6 3 3 3 6 5 3 4 3 3 3 3 3 5 7 6 6 6 4 3 2 0 3 3 2 1 6 9 10 12 12 13 13 15 19 22 24 25 25 29 34 35 39
6 3 3 5 10 14 15 16 14 7 3 4 3 3 6 4 4 10 11 8 8 9 8 7 8 5 4 5 5 4 5 5 5 4 2 3 2 4 9 11 13 16 14 13 13 6 4 4 4 6 4 3 4 4 4 2 1 3 4 6 5 6 6 4 2 1 1 3 3 4 1 5 8 10 12 11 11 11 13 18 20 21 23 23 27 33 35 37
6 3 3 3 2 4 5 9 13 11 7 7 4 2 5 6 4 4 5 6 8 8 5 5 8 6 3 4 4 3 4 4 5 3 2 3 3 4 8 6 8 16 14 9 9 6 4 1 1 4 3 1 2 3 3 2 1 2 3 4 5 6 5 2 3 4 2 2 4 6 4 4 5 9 10 10 11 11 13 17 18 20 22 23 27 33 33 34
9 7 7 7 5 3 3 7 13 13 8 6 4 2 3 5 4 3 2 3 6 7 4 4 5 6 5 4 4 4 3 3 3 3 1 3 3 2 4 3 5 14 12 5 5 5 3 1 0 3 3 1 2 3 3 4 4 3 2 3 3 4 5 5 5 6 5 5 7 7 4 1 3 8 8 9 13 13 14 17 21 23 24 23 26 29 30 33
10 8 7 9 9 8 8 9 10 8 6 5 4 3 3 4 4 3 3 3 2 4 4 4 4 4 3 4 5 4 3 6 5 1 2 2 2 1 1 1 2 8 8 3 3 5 4 1 2 4 3 3 3 2 4 4 4 4 3 5 5 5 6 5 5 6 5 6 5 3 2 2 3 8 10 11 13 15 16 19 22 23 23 24 25 26 29 33
12 9 6 7 6 7 7 7 6 4 4 4 3 2 3 3 3 2 3 4 2 0 1 1 2 3 3 5 5 2 3 5 5 2 4 4 1 1 1 1 0 3 4 2 2 3 3 2 2 5 4 4 4 5 7 6 4 3 2 3 2 2 2 2 2 2 2 4 4 2 1 1 4 9 10 12 13 14 16 18 20 21 23 24 24 25 29 33
10 9 7 7 4 6 5 4 4 4 2 2 2 2 2 4 5 3 3 5 6 4 3 1 1 3 3 4 4 1 2 4 4 4 3 2 2 3 5 7 8 5 0 1 2 1 2 2 1 3 2 4 5 6 8 8 6 2 1 1 2 2 0 1 2 3 3 1 2 1 1 0 4 7 7 9 11 12 14 16 19 21 23 23 23 24 28 31
Wind_Direction
344 344 343 340 339 337 337 338 338 337 337 337 336 333 330 329 327 323 322 323 324 323 324 321 316 315 314 312 309 308 307 301 297 285 279 266 228 217 194 186 186 185 185 181 183 187 185 179 174 172 170 176 191 202 204 213 222 221 207 189 243 242 224 231 205 157 140 155 168 178 182 149 144 161 149 144 137 129 133 145 146 136 147 153 159 159 157 155
340 341 340 339 337 334 333 333 334 334 332 333 333 331 329 327 326 323 322 323 324 323 321 320 316 316 315 313 312 308 305 303 299 291 283 255 221 209 186 180 179 180 186 189 190 192 191 182 173 171 173 177 191 201 202 210 214 214 209 188 230 219 223 239 151 142 149 160 165 179 188 162 150 155 149 144 141 138 128 142 137 124 135 148 154 157 157 158
338 337 337 337 336 333 330 328 329 330 329 328 328 329 327 325 324 321 321 322 325 323 319 319 315 315 314 313 315 309 310 313 309 313 346 210 208 200 185 179 178 176 183 192 195 197 196 182 174 172 174 186 195 193 198 201 200 209 213 237 243 219 258 271 163 154 165 159 155 170 171 155 152 154 152 149 144 151 153 157 149 136 140 149 154 158 159 161
337 337 336 335 334 333 329 326 324 324 326 324 323 325 324 323 321 319 319 322 326 323 319 317 312 312 312 315 321 313 320 332 333 105 80 94 158 185 184 181 180 175 174 185 194 195 188 172 171 172 174 198 209 201 210 209 200 193 199 224 247 199 240 261 177 153 159 157 154 158 152 143 156 160 157 151 145 171 184 169 160 152 151 154 157 160 162 165
337 338 336 334 333 332 329 326 322 320 321 320 320 320 321 320 318 317 317 321 325 323 317 314 311 309 312 319 325 316 339 14 140 115 83 80 104 157 179 185 184 176 174 179 186 186 176 167 170 175 179 208 207 205 226 220 219 223 223 236 255 249 261 245 173 151 152 152 150 154 150 146 154 165 166 163 160 187 185 172 164 163 160 159 159 161 165 170
337 337 336 334 333 331 328 325 322 317 315 316 317 317 318 317 314 315 314 319 324 322 314 312 311 309 314 320 324 313 305 129 148 122 91 83 91 144 171 189 190 185 183 180 182 182 175 169 172 180 184 205 207 211 233 222 217 239 262 248 255 257 248 184 173 161 154 151 152 157 152 147 146 168 176 174 173 173 180 170 163 167 164 160 161 163 167 173
336 335 334 333 331 330 327 324 321 317 313 312 314 314 314 312 311 311 311 316 320 318 310 310 311 310 317 314 315 294 259 206 158 136 101 93 94 147 166 186 191 193 192 185 186 183 179 176 178 182 174 195 218 224 243 238 220 228 261 262 262 259 242 194 181 171 163 158 156 154 150 152 151 165 176 179 177 168 175 169 162 166 164 162 165 166 170 176
334 333 332 330 329 328 326 323 320 317 314 309 310 311 312 309 307 307 308 312 315 313 306 308 310 313 321 304 298 289 253 179 151 136 103 98 99 156 173 182 187 194 194 190 190 184 182 184 184 182 175 216 221 228 245 251 238 229 244 264 266 261 247 200 180 172 167 156 151 151 152 168 167 161 170 182 176 165 169 166 163 165 163 165 168 169 172 177
334 332 330 327 325 325 323 322 319 316 314 310 308 307 310 308 304 304 305 308 309 306 303 306 309 318 323 290 287 285 196 153 148 135 107 103 94 167 188 187 188 194 194 192 191 189 188 189 189 183 176 232 239 264 258 241 236 222 236 260 260 264 249 193 174 170 167 156 152 152 148 174 171 154 161 186 173 166 170 166 165 165 164 168 172 173 175 178
333 331 329 326 323 322 320 318 316 315 313 311 308 305 307 306 302 301 302 303 301 300 301 302 311 322 313 259 246 158 155 150 157 152 132 170 255 209 201 199 198 196 195 193 191 194 193 190 189 188 192 256 247 269 263 230 242 252 260 273 267 271 243 178 166 165 161 158 159 152 135 158 167 156 166 188 173 167 169 164 164 166 167 171 174 176 178 179
332 330 327 325 322 320 317 315 313 311 311 310 309 305 304 305 301 298 297 295 291 296 299 296 311 317 295 252 238 179 145 143 160 185 212 241 294 228 190 196 200 199 197 195 195 195 193 192 187 185 209 256 268 286 273 250 280 293 294 297 285 277 200 161 157 161 155 158 164 144 105 140 173 202 197 178 169 161 162 161 165 168 171 174 176 179 182 181
334 330 328 327 324 321 317 315 311 308 309 307 308 306 303 303 300 294 290 285 283 291 295 292 303 299 286 266 236 185 144 141 162 210 225 235 290 64 107 166 190 204 202 198 199 194 193 198 190 187 210 247 292 298 295 299 310 306 294 299 307 18 145 161 156 163 160 156 160 137 89 165 206 240 184 170 163 157 161 166 169 171 174 177 179 182 184 184
339 336 335 334 330 326 321 318 313 309 308 305 305 305 304 303 297 288 280 275 277 288 294 285 285 289 287 266 208 164 158 173 191 212 206 215 242 242 237 210 209 216 211 205 201 196 196 198 193 207 235 287 309 282 301 307 305 298 281 270 317 57 153 183 158 161 163 157 163 149 96 233 216 216 177 167 164 160 166 173 173 173 176 178 182 184 186 187
345 345 344 342 337 332 327 323 317 311 306 304 304 304 305 302 291 280 271 269 273 282 287 271 278 286 273 243 163 166 196 195 209 214 192 206 220 226 232 241 260 238 211 205 201 202 201 200 202 223 255 272 279 287 307 309 303 291 290 335 114 118 200 201 159 159 148 165 175 165 33 221 212 209 184 170 170 170 169 175 178 177 177 180 183 185 187 189
349 349 349 347 343 337 332 326 320 313 308 307 304 305 308 301 283 270 265 266 267 267 271 275 271 286 283 257 178 189 210 195 200 192 176 186 184 207 223 213 234 227 211 199 198 208 206 205 212 238 269 273 272 285 317 323 337 360 298 314 342 114 207 207 174 175 154 166 189 193 327 232 214 197 187 175 175 175 170 175 181 181 180 181 184 187 188 190
349 350 349 348 345 341 336 328 322 318 314 314 311 309 311 299 279 270 268 261 255 247 256 272 261 277 292 257 192 190 200 186 174 163 173 185 185 203 208 190 200 209 205 183 169 181 199 207 221 244 261 270 254 217 354 346 330 356 100 256 298 67 145 197 200 200 174 150 192 218 247 268 226 183 181 177 179 178 171 175 182 184 184 183 185 187 188 189
347 347 347 347 344 342 338 331 325 322 324 331 324 318 327 311 285 270 263 237 238 240 251 261 260 275 257 206 175 178 194 192 183 184 186 188 198 210 205 196 189 174 171 160 158 167 183 199 218 243 250 246 192 143 65 296 268 321 27 243 263 172 154 176 212 211 191 153 189 218 232 251 255 176 177 179 182 180 175 178 182 185 187 186 187 187 187 189
343 343 344 345 342 340 341 334 328 327 339 355 344 339 10 353 333 214 217 157 218 221 254 248 228 278 235 200 173 179 216 222 210 202 192 184 187 202 209 197 181 172 169 165 181 188 186 196 205 243 263 218 184 140 173 223 193 178 126 85 291 291 151 169 210 197 190 197 197 206 226 243 266 165 179 183 183 184 184 183 183 185 188 189 189 188 189 190
339 339 340 342 340 339 342 337 332 337 360 19 10 15 41 28 76 103 36 346 285 204 254 228 196 196 220 212 248 304 321 218 206 191 185 185 180 192 203 199 192 179 171 164 192 189 180 184 193 212 238 213 194 168 184 199 160 157 170 156 230 289 289 198 231 197 183 202 215 204 218 228 212 173 183 187 186 189 188 186 186 187 189 190 191 191 191 192
335 335 335 339 338 338 344 340 337 350 13 26 37 69 50 22 61 93 346 326 290 258 278 257 236 256 268 264 264 312 347 201 204 194 174 180 180 183 186 182 179 173 162 148 180 188 172 179 217 213 215 208 208 192 188 191 177 186 198 219 237 260 286 251 251 210 182 193 224 214 218 220 202 184 183 185 188 190 188 188 189 189 191 192 193 193 194 195
333 332 332 336 336 338 345 343 340 5 22 29 49 71 50 23 15 323 330 323 303 295 284 270 260 263 267 265 250 317 331 280 219 205 179 183 180 177 187 176 145 155 188 161 146 153 165 201 231 220 209 208 218 196 191 213 221 242 238 266 279 235 262 274 263 225 190 193 236 224 222 225 207 189 180 181 187 192 188 188 190 190 192 194 196 196 196 197
334 332 330 331 334 339 345 343 341 10 24 35 58 64 47 28 11 322 319 308 301 303 285 268 264 260 260 258 264 298 293 279 242 212 192 186 181 180 184 161 132 170 200 154 123 133 192 230 241 233 216 205 252 227 196 225 233 245 234 232 273 235 268 293 275 242 192 190 246 231 220 229 209 188 186 183 189 195 192 191 191 190 190 194 197 198 197 196
336 333 328 329 332 340 345 331 327 8 20 34 56 56 38 23 22 352 319 288 291 296 279 260 256 253 256 261 274 260 242 244 244 207 189 186 181 179 166 142 143 167 165 154 149 159 205 242 238 236 223 190 256 263 212 236 253 240 226 221 238 203 112 284 285 301 178 207 251 228 209 233 156 172 205 196 193 195 195 196 195 194 195 197 198 199 198 196
336 332 328 329 330 342 345 307 296 351 359 22 46 47 26 7 18 5 333 287 280 298 279 232 234 246 257 269 263 217 207 221 229 179 185 190 175 166 168 160 138 144 178 173 158 166 229 251 236 225 226 204 235 266 232 218 258 250 230 225 218 200 195 223 272 356 347 268 263 120 95 326 159 174 204 201 196 198 195 196 198 200 202 202 202 201 201 199
336 331 328 330 329 341 346 287 272 320 321 349 21 19 5 341 349 357 346 320 283 304 321 178 200 223 247 246 198 181 182 218 235 202 183 186 174 156 162 169 146 184 209 168 151 178 249 252 232 199 230 218 217 257 232 184 232 275 246 223 207 215 227 233 268 351 350 307 269 122 99 299 236 187 190 182 194 201 195 198 201 202 204 205 205 204 204 203
337 330 329 333 329 339 355 259 264 287 271 300 318 339 340 313 309 334 350 43 332 294 327 157 179 197 212 189 174 160 133 243 209 169 166 171 175 154 138 164 148 202 202 160 156 197 241 230 197 188 219 215 218 248 228 173 198 267 244 204 197 212 232 250 258 219 254 274 267 123 128 244 280 211 195 179 194 203 199 205 205 202 204 205 205 205 204 204
335 326 330 337 328 337 4 332 288 296 287 313 303 314 323 304 293 308 340 50 347 303 296 162 161 190 190 166 168 153 121 192 119 151 165 166 177 156 153 195 139 202 197 122 142 228 210 185 184 193 200 203 220 242 222 167 165 249 218 148 174 201 217 238 224 199 231 234 293 8 98 133 283 219 189 175 193 208 211 217 210 207 208 206 206 206 205 205
332 327 336 341 328 336 356 356 4 16 345 320 308 305 307 301 303 310 68 76 297 302 326 211 168 177 165 162 178 166 131 160 120 157 173 165 167 142 149 199 171 197 207 118 166 254 221 167 190 188 181 199 216 230 218 164 187 252 229 147 171 188 200 217 186 193 259 100 246 294 90 111 291 252 162 166 190 209 216 218 212 209 210 208 207 207 206 206
335 337 347 349 340 349 3 5 24 18 343 320 315 304 291 294 316 25 91 77 303 311 348 225 165 173 165 161 188 179 121 128 129 170 174 148 114 107 156 199 166 179 203 137 189 248 254 218 199 162 164 207 223 233 213 167 210 248 227 198 205 136 167 188 143 153 57 82 225 251 143 126 284 277 143 166 199 213 217 218 215 212 212 211 209 208 207 207
348 358 11 18 16 21 33 10 4 355 336 332 325 304 295 297 338 75 60 55 10 320 315 283 257 202 150 111 64 300 125 45 149 149 115 69 52 41 55 159 103 115 186 13 219 238 274 270 234 155 183 216 224 233 211 193 215 232 150 218 221 70 56 62 81 102 88 275 252 252 187 141 275 278 177 183 205 208 210 213 216 216 214 212 210 208 208 208
15 27 33 36 32 29 28 12 350 340 335 336 326 310 307 320 66 88 56 354 356 334 328 300 268 230 144 122 101 320 109 355 3 104 76 52 45 35 33 39 29 46 30 351 303 284 319 322 272 278 6 351 236 245 227 206 211 206 102 131 163 293 32 50 348 52 116 246 262 259 234 132 183 268 222 215 219 212 209 211 212 213 212 210 209 210 209 208
41 34 33 31 28 27 27 25 7 346 335 331 326 320 338 46 35 58 330 333 350 326 320 303 290 311 201 135 113 85 85 33 25 67 75 53 51 45 46 32 360 70 59 301 270 329 334 337 321 321 27 27 3 266 303 223 172 147 136 104 117 281 15 162 268 180 174 236 241 232 231 126 217 248 228 224 228 220 214 220 221 216 212 209 208 209 209 208
29 15 14 9 6 12 24 32 12 350 342 337 326 325 88 78 36 341 315 342 325 280 300 299 299 326 102 82 50 43 55 33 24 57 70 69 68 58 46 25 17 103 150 210 66 18 290 293 350 359 11 9 9 172 340 328 162 166 173 141 144 154 134 201 229 194 207 233 229 216 189 174 259 310 314 258 245 237 225 225 226 221 216 213 211 210 208 209
22 17 10 8 15 20 26 27 14 3 355 353 2 77 63 67 354 317 332 296 261 286 304 300 320 6 61 63 45 70 60 27 22 49 45 49 51 15 12 14 9 24 110 70 63 69 151 232 358 29 330 344 2 203 212 206 188 191 177 142 144 161 155 192 203 171 193 217 272 250 188 152 166 319 347 350 336 320 288 262 245 231 223 216 212 211 208 208
27 24 22 27 35 37 32 20 13 8 359 8 61 73 56 49 301 326 345 303 290 319 317 344 24 32 28 19 12 32 68 48 34 58 55 56 53 5 353 2 1 4 50 68 41 41 112 216 290 314 283 342 1 312 269 166 204 271 135 121 125 183 157 141 175 175 163 128 9 260 207 189 178 174 8 9 6 9 6 352 334 285 248 222 209 209 208 208
36 36 38 38 35 30 21 11 8 6 2 28 70 56 63 73 311 306 323 317 312 309 315 5 32 34 11 3 359 353 19 67 71 67 57 61 56 14 355 347 359 9 28 86 83 9 81 235 305 337 318 359 1 317 353 71 193 253 59 116 243 247 137 117 205 279 76 96 245 245 359 337 311 11 10 7 4 7 7 0 355 342 314 241 213 210 208 208
44 44 40 33 23 11 5 6 7 7 14 51 78 56 78 26 339 313 314 325 322 330 9 43 22 22 9 3 3 343 348 36 50 52 36 36 36 6 350 335 0 10 1 27 115 51 88 229 319 10 332 335 349 327 19 38 30 114 78 302 285 236 130 109 111 360 51 115 250 34 79 27 9 348 351 5 8 4 1 356 350 352 351 300 231 217 212 211
39 39 33 23 10 358 356 359 2 15 36 63 80 72 90 359 360 352 338 342 353 11 47 66 25 24 17 9 10 356 0 20 15 40 50 38 29 5 355 334 348 359 353 6 79 356 31 277 303 8 314 311 350 357 4 6 9 72 163 316 27 126 171 64 126 142 98 160 238 30 76 59 31 340 343 6 8 0 360 357 351 354 355 339 281 230 215 213
30 33 27 10 354 349 348 348 4 40 59 63 74 66 56 11 7 8 11 18 27 31 47 50 35 42 22 38 26 9 32 43 16 48 58 31 26 8 12 355 327 347 359 21 57 281 12 59 273 327 334 314 357 26 15 338 348 22 40 10 20 118 162 49 152 151 131 167 186 42 25 16 338 320 346 5 4 5 7 2 358 355 351 350 339 272 221 212
37 36 17 6 1 3 359 9 36 57 66 56 75 46 14 17 0 12 27 38 39 38 49 13 23 51 25 32 44 23 42 47 30 54 47 13 17 3 11 4 321 334 1 36 52 14 20 58 296 303 342 12 26 9 2 345 357 21 32 26 5 343 355 33 30 70 112 148 167 123 65 329 295 318 346 4 6 11 15 9 4 1 357 357 359 345 247 217
45 38 8 15 33 53 58 60 51 55 60 35 52 28 26 35 2 9 26 41 50 44 49 55 42 49 34 33 41 24 44 52 35 54 64 25 32 3 353 355 336 326 356 32 32 18 26 56 20 323 1 41 347 330 7 44 62 63 55 33 9 358 14 66 57 346 42 100 149 136 126 259 287 337 341 360 12 8 15 19 16 11 9 6 6 8 349 228
52 41 9 27 65 92 82 69 28 39 69 44 43 40 41 37 13 10 17 31 44 34 35 50 42 38 36 31 36 29 52 61 30 43 73 31 40 9 340 353 358 359 36 44 328 336 53 80 51 349 344 343 290 5 48 59 78 81 61 29 15 29 31 73 121 322 352 31 357 109 117 226 259 348 342 346 8 10 17 23 24 21 19 17 14 17 22 15
50 40 28 44 83 94 84 68 356 41 58 47 59 52 49 43 23 25 22 24 30 21 30 37 23 36 39 22 32 38 52 57 29 34 58 24 20 1 354 8 17 16 41 44 317 334 28 55 31 339 326 347 321 342 48 45 54 62 37 20 17 15 357 264 186 239 21 27 355 34 105 231 276 342 350 349 3 15 19 22 28 27 24 25 23 21 24 32
54 45 38 43 61 78 78 74 25 65 51 49 62 47 47 50 35 35 34 27 23 15 36 35 22 39 36 24 45 42 45 71 41 19 37 36 3 5 15 30 36 29 33 24 340 341 12 44 52 34 15 15 359 327 351 22 36 30 354 8 11 1 356 350 30 45 69 66 24 68 149 249 296 339 358 360 8 20 18 17 27 32 28 28 29 26 25 29
55 51 37 41 56 70 76 89 98 93 75 60 59 35 34 45 41 45 48 39 34 36 52 32 15 52 50 42 50 39 38 70 72 5 20 20 350 2 19 34 42 41 34 23 13 25 56 51 75 86 100 147 149 326 315 337 360 355 340 355 5 8 8 12 28 27 59 64 35 102 194 285 309 355 8 4 8 14 14 14 20 28 30 31 32 31 29 29
49 47 17 34 54 64 67 67 72 80 81 77 65 35 26 25 34 42 47 45 36 40 55 36 7 42 48 47 59 44 35 50 64 69 42 15 341 345 10 32 43 41 34 25 20 36 93 58 72 109 123 165 181 211 260 305 336 325 333 344 350 3 12 32 47 24 236 356 346 179 162 326 330 359 8 3 6 10 13 12 12 19 24 28 33 32 29 31
62 37 331 10 41 49 52 53 54 50 47 79 85 19 31 37 16 33 44 44 30 37 54 37 23 37 36 44 74 51 24 39 48 60 47 7 326 336 8 35 43 34 30 26 21 38 99 53 56 101 117 169 188 226 263 299 319 293 320 332 331 342 5 38 23 265 151 27 313 233 56 355 333 354 7 4 3 9 16 13 10 17 20 21 32 34 29 28
76 58 40 67 41 9 33 49 52 52 49 58 64 18 40 46 30 31 34 27 26 34 52 35 24 28 23 52 95 62 20 42 35 24 24 9 348 347 3 16 30 26 25 23 24 54 110 80 54 97 93 186 215 274 311 344 286 262 284 304 321 335 343 346 266 252 184 142 244 264 323 5 349 356 9 13 6 10 22 21 19 22 22 21 30 34 28 24
81 75 61 80 82 46 66 68 62 59 45 40 50 37 51 54 36 6 348 15 18 15 48 67 11 1 13 49 98 82 55 84 42 358 360 27 15 10 3 334 1 17 20 21 21 42 93 102 26 85 69 337 312 318 339 359 340 315 279 263 273 281 273 262 249 241 231 227 238 264 289 90 38 360 2 15 14 17 26 32 34 30 24 22 27 31 27 23
79 78 73 84 75 50 53 57 60 60 37 32 49 25 33 59 33 349 359 58 50 344 27 66 14 358 35 65 89 105 144 149 137 145 157 85 17 353 10 260 316 2 9 20 6 21 53 11 349 61 44 313 314 346 355 356 329 305 277 251 245 248 251 251 244 238 241 247 249 254 216 162 16 355 0 11 17 24 27 29 34 33 26 25 25 25 24 22
78 79 83 93 63 22 33 44 51 68 34 22 39 16 14 23 8 354 1 17 60 224 356 74 40 24 38 57 77 132 181 143 131 136 137 118 103 225 246 296 309 348 353 18 11 22 63 26 351 53 37 306 316 354 346 338 321 298 278 248 233 240 256 254 253 260 262 259 273 298 191 204 338 348 0 9 17 28 27 23 26 27 27 28 25 21 22 21
75 76 80 95 66 10 23 37 39 61 46 345 13 33 27 5 2 33 45 360 357 6 344 272 105 55 40 49 61 75 74 80 67 34 39 32 27 84 95 74 66 62 350 84 49 36 99 85 43 68 54 299 313 346 350 350 351 326 252 184 134 132 91 360 343 333 341 322 281 273 211 251 348 348 358 6 14 30 33 26 25 22 21 25 23 18 18 18